Wind_Speed
25 24 23 24 25 26 25 25 25 25 25 25 26 26 26 25 25 24 24 23 23 23 23 22 22 22 22 21 21 21 20 20 19 19 19 19 20 20 20 19 18 17 17 18 19 21 23 24 25 25 26 25 25 24 23 22 21 20 19 19 18 18 18 17 17 16 14 12 11 10 10 11 11 10 9 8 7 7 8 8 7 7 7 6 7 7
25 25 25 26 26 26 26 25 25 25 25 25 25 25 25 25 24 24 24 23 23 23 23 23 23 22 22 22 21 21 20 20 19 19 18 19 19 20 20 19 19 18 18 19 20 21 23 24 25 25 25 25 24 23 22 21 20 19 18 18 17 17 17 16 16 14 13 12 11 11 11 11 10 9 8 8 8 8 8 8 7 7 7 7 7 7
26 26 26 26 26 26 26 25 24 24 24 25 25 25 25 25 25 24 24 24 23 23 23 23 23 23 23 22 22 21 21 20 19 19 18 18 19 19 20 20 20 20 20 20 20 21 23 24 24 24 24 23 22 21 20 19 19 18 17 17 17 16 16 15 14 13 12 11 11 11 11 10 9 9 8 8 8 8 8 8 7 7 7 7 7 7
26 26 26 26 26 26 25 24 24 24 24 24 24 24 24 25 25 24 24 24 24 23 23 23 23 23 23 23 22 22 21 20 19 19 18 18 18 19 20 20 21 21 21 21 21 22 22 23 23 23 22 22 21 20 19 18 17 17 17 16 16 15 15 14 13 12 11 11 11 11 11 10 9 9 8 8 8 8 8 8 7 7 7 7 8 8
25 25 25 25 25 25 24 24 24 24 24 24 24 24 24 24 24 25 24 24 24 24 23 23 23 23 23 23 23 22 22 21 20 19 18 18 18 19 20 21 21 22 21 21 21 21 22 22 22 21 21 20 19 18 18 17 17 16 16 15 15 15 14 13 12 11 11 11 11 11 10 10 9 9 9 9 8 8 8 7 7 7 8 8 8 8
24 24 24 24 24 24 24 24 23 23 23 24 24 24 24 24 25 25 24 24 24 24 24 23 23 24 24 23 23 23 22 21 20 19 18 18 18 19 20 21 22 22 21 21 21 21 21 21 20 20 19 18 18 17 17 16 16 15 15 14 14 14 13 12 11 11 11 11 11 10 10 10 9 9 9 9 8 8 8 8 8 8 8 8 9 9
23 23 24 24 24 24 23 24 23 23 23 23 23 24 24 25 25 25 25 24 24 24 24 24 24 24 24 24 23 23 22 21 20 19 19 18 18 19 20 21 22 22 21 21 20 20 20 20 19 18 18 17 17 16 16 15 15 14 14 13 13 13 12 11 11 11 10 10 10 10 10 10 9 9 9 8 8 8 8 8 8 8 8 9 9 9
23 23 23 23 23 23 23 23 23 23 23 23 23 24 24 25 25 25 25 25 25 24 24 24 24 24 24 24 24 23 22 21 20 19 19 19 19 19 20 21 21 21 21 20 20 19 19 18 18 17 17 16 16 15 15 15 14 13 13 12 12 12 12 11 11 11 10 10 10 10 10 10 9 9 9 8 8 8 8 8 8 8 9 9 9 9
23 23 23 22 23 23 23 23 23 23 23 23 23 23 24 25 25 25 26 26 25 25 25 24 24 25 25 24 24 23 22 21 20 19 19 19 19 20 21 21 21 21 20 20 19 19 18 17 17 16 16 16 15 15 15 14 13 13 12 12 11 11 11 11 11 10 10 10 10 10 10 9 9 9 9 8 8 8 8 8 8 9 9 9 9 9
22 23 23 22 22 23 23 22 22 22 23 23 23 24 24 25 26 26 26 26 26 26 26 25 25 25 25 25 24 23 22 21 20 20 19 20 20 20 21 21 21 20 20 19 18 18 17 17 16 16 15 15 15 14 14 14 13 12 12 11 11 11 11 11 11 11 10 10 10 10 10 9 9 9 9 8 8 8 8 8 9 9 9 9 9 9
22 22 22 22 22 23 23 22 22 22 23 23 24 25 25 26 26 26 26 26 27 27 26 26 26 26 26 25 24 23 22 21 21 20 20 20 20 20 21 21 20 20 19 19 18 17 17 16 16 15 15 15 14 14 14 14 13 12 11 11 11 11 11 11 11 11 10 10 10 10 10 9 9 9 9 8 8 8 9 9 9 9 9 9 8 8
22 22 22 23 23 23 23 23 23 23 23 24 24 25 25 26 27 27 27 27 27 27 27 27 27 27 26 26 25 23 22 21 21 20 20 20 20 21 21 20 20 19 19 18 17 17 16 16 15 15 15 15 14 14 14 14 13 12 12 11 11 11 11 11 11 11 10 10 10 10 9 9 9 9 9 9 9 9 9 9 9 8 8 8 8 8
23 23 23 23 23 23 23 23 23 23 24 24 24 25 25 26 27 28 28 28 28 27 27 27 27 27 27 26 25 24 23 22 21 21 20 20 20 21 21 20 20 19 18 18 17 16 16 16 15 15 15 15 14 14 14 14 13 13 12 11 11 11 11 11 11 11 10 10 10 10 9 9 9 9 9 9 9 9 9 9 8 8 8 8 8 9
23 23 24 24 24 24 24 24 24 24 24 24 25 26 26 27 28 28 29 28 28 28 28 28 28 28 27 27 25 24 23 22 21 21 21 21 21 21 21 20 19 18 18 17 17 16 16 15 15 15 15 15 14 14 14 14 13 13 12 12 12 11 11 11 11 11 10 10 10 10 9 9 9 9 9 9 9 9 9 9 9 9 9 9 9 9
24 24 24 24 25 25 25 25 25 25 25 25 26 26 27 28 28 29 29 29 29 29 28 29 29 29 28 27 26 24 23 23 22 21 21 21 21 21 21 20 19 18 17 17 17 16 16 15 15 15 15 15 15 14 14 14 13 13 12 12 12 12 11 11 11 11 10 10 10 10 9 9 9 9 9 9 9 9 9 9 9 9 9 9 9 9
25 25 25 25 25 25 25 25 25 26 26 26 27 27 28 28 29 29 29 29 30 29 29 29 29 29 28 27 26 24 24 23 22 22 22 21 21 21 21 20 19 18 17 17 17 16 16 16 15 15 15 15 14 14 14 14 14 13 13 12 12 12 11 11 11 11 10 10 10 10 9 9 9 9 9 9 9 9 9 9 9 9 9 9 9 9
25 25 26 26 26 26 26 26 26 26 27 27 27 28 28 29 29 30 30 30 30 30 30 30 30 29 29 27 26 24 23 23 23 22 22 22 21 21 21 20 19 17 17 17 17 17 16 16 16 15 15 15 14 14 14 14 14 13 13 12 12 12 12 11 11 11 10 10 10 10 10 9 9 9 9 9 9 9 9 10 10 10 10 10 10 10
25 26 26 27 27 27 27 27 27 27 27 28 28 29 29 30 30 30 30 30 30 30 31 30 30 29 29 28 26 24 23 23 23 23 22 22 21 21 20 19 18 17 16 17 17 17 16 16 16 16 15 15 14 14 14 14 13 13 13 13 12 12 12 11 11 11 10 10 10 10 10 10 10 10 10 10 10 10 10 10 10 10 10 10 10 10
26 26 27 27 28 28 28 28 28 28 28 28 29 29 30 31 31 31 31 31 30 31 31 31 30 30 29 27 26 24 23 24 24 23 22 21 21 21 20 19 18 17 16 17 17 17 17 16 16 16 15 15 14 14 14 14 14 13 13 13 12 12 12 11 11 11 11 10 10 10 10 10 10 10 10 10 10 10 10 10 11 11 11 11 11 11
26 27 27 28 29 29 29 28 28 28 28 29 29 30 31 31 31 31 31 31 31 31 31 31 30 29 28 27 26 24 24 24 24 23 22 21 21 20 20 19 18 17 17 17 17 17 17 16 16 16 15 15 14 14 14 14 14 13 13 13 13 12 12 12 11 11 11 11 11 11 10 10 10 10 10 10 10 11 11 11 11 11 11 11 11 11
27 27 28 29 29 30 29 29 29 29 29 29 30 31 31 32 32 32 31 31 31 31 31 30 30 29 28 26 25 24 24 24 24 23 21 21 20 20 20 19 18 17 17 17 18 18 17 17 16 16 15 15 14 14 14 14 14 14 13 13 13 12 12 12 12 11 11 11 11 11 11 11 11 11 11 11 11 11 11 11 11 12 12 11 11 11
27 28 29 29 30 30 30 30 30 29 29 30 30 31 32 32 32 32 31 31 30 30 30 30 29 28 27 26 25 25 25 24 24 23 21 20 20 19 19 19 18 17 17 17 18 18 17 17 16 16 16 15 15 15 14 14 14 14 13 13 13 13 12 12 12 12 12 12 11 11 11 11 11 11 11 11 11 12 12 12 12 12 12 12 12 12
28 29 29 30 31 31 31 31 31 30 30 30 31 31 32 32 32 31 31 30 30 30 29 29 28 27 26 25 25 25 25 24 23 22 21 20 19 19 20 19 19 18 17 18 18 18 17 17 17 16 16 15 15 15 15 14 14 14 14 13 13 13 13 12 12 12 12 12 12 12 12 12 12 12 12 12 12 12 12 12 12 12 12 12 12 12
29 29 30 30 31 31 32 32 31 31 31 31 31 31 31 31 31 31 30 30 29 29 28 28 27 27 26 25 25 24 24 24 23 22 21 19 19 19 20 20 19 18 18 18 18 18 17 17 17 17 16 16 15 15 15 15 15 14 14 14 13 13 13 13 13 13 13 12 12 12 12 12 12 12 12 12 12 12 12 12 13 12 12 12 13 13
29 30 30 31 31 32 32 32 32 32 31 31 31 31 31 31 31 30 30 29 29 28 28 27 27 26 25 25 24 24 24 23 23 22 20 19 19 19 20 20 19 18 18 18 19 18 18 17 17 17 16 16 16 16 15 15 15 15 14 14 14 13 13 13 13 13 13 13 13 13 13 13 12 13 13 13 13 13 13 13 13 13 13 13 13 13
30 30 30 31 31 32 32 32 32 32 31 31 31 31 31 31 30 30 29 29 28 28 27 27 26 25 25 24 23 23 23 23 23 22 20 19 19 20 20 20 19 19 18 19 19 18 18 17 17 17 17 16 16 16 15 15 15 15 14 14 14 14 14 14 14 13 13 13 13 13 13 13 13 13 13 13 13 13 13 13 13 13 13 13 13 13
30 30 31 31 31 32 32 32 32 31 31 31 30 30 30 30 30 30 29 28 27 27 27 26 25 25 24 23 23 23 23 23 22 21 20 20 20 20 20 20 19 19 19 19 19 18 18 18 18 17 17 16 16 16 15 15 15 15 14 14 14 14 14 14 14 14 14 13 13 13 13 13 13 13 13 13 13 13 13 13 13 13 13 13 14 14
30 30 31 31 31 31 32 32 31 31 30 30 30 30 30 30 30 29 28 27 27 27 26 25 25 24 23 22 22 23 23 23 22 21 20 20 20 20 20 20 19 19 19 19 19 18 18 18 18 17 17 17 16 16 15 15 15 15 15 14 14 14 14 14 14 14 14 14 14 13 13 13 13 13 13 13 13 13 13 13 13 13 14 14 14 14
30 30 30 31 31 31 31 31 31 30 30 30 30 30 30 29 29 28 27 27 26 26 25 25 24 23 22 22 22 23 22 22 21 21 20 20 20 20 20 20 19 19 19 19 19 19 18 18 18 17 17 16 16 16 15 15 15 15 15 14 14 14 14 14 14 14 14 14 14 14 14 14 13 13 13 13 13 13 13 13 14 14 14 14 14 14
30 30 30 30 30 30 30 30 30 29 29 29 29 29 29 29 28 28 27 27 26 26 25 24 23 23 22 22 22 22 22 21 21 20 20 20 20 20 20 20 19 19 20 20 19 19 19 18 18 17 17 16 16 16 16 15 15 15 15 14 14 14 14 14 14 14 14 14 14 14 14 14 14 14 14 14 14 14 14 14 14 14 14 14 14 15
29 30 30 30 30 30 29 29 29 29 29 29 29 29 28 28 27 27 27 26 26 25 24 23 22 22 22 22 22 21 21 21 20 20 20 20 20 20 20 20 20 20 20 20 19 19 18 18 18 17 16 16 16 16 16 16 15 15 15 15 15 15 15 15 14 14 14 14 14 14 14 14 14 14 14 14 14 14 14 14 14 14 14 14 15 15
29 29 29 29 29 29 29 29 29 28 28 28 28 28 28 27 27 26 26 26 25 24 23 22 22 22 22 22 21 20 20 21 21 20 20 20 20 20 20 20 20 20 21 20 19 19 18 18 18 17 17 16 16 16 16 16 16 15 15 15 15 15 15 15 15 14 14 14 14 14 14 14 14 14 14 14 14 14 14 14 14 14 14 14 15 15
29 29 29 29 29 29 28 28 28 28 28 28 28 27 27 26 26 25 25 25 24 23 22 22 21 21 21 21 21 20 21 21 21 21 20 20 20 20 21 21 21 21 21 20 19 19 18 18 18 17 17 17 17 17 16 16 16 15 15 15 15 15 15 15 15 14 14 14 14 14 14 14 14 14 14 14 14 14 14 14 14 14 14 14 14 14
28 28 28 28 28 28 28 28 28 28 28 27 27 26 25 25 24 24 24 24 23 23 22 21 21 21 21 21 20 21 21 21 21 21 20 20 20 21 21 21 21 21 20 20 19 18 18 18 18 17 17 17 17 17 17 16 16 16 15 15 15 15 15 15 14 14 14 14 14 14 14 14 14 14 14 14 14 14 14 14 13 13 13 13 14 14
28 28 28 28 28 28 28 28 28 27 27 26 26 25 24 24 24 23 23 23 22 22 21 21 21 21 21 20 20 21 21 22 21 21 21 21 21 21 21 21 21 21 20 19 19 18 18 18 18 18 17 17 17 17 17 16 16 16 16 15 15 15 15 15 14 14 14 14 14 14 14 14 13 13 13 13 13 13 13 13 13 13 13 13 13 13
28 28 28 28 28 28 28 28 27 27 26 26 24 24 23 23 23 23 23 22 22 21 21 21 21 21 20 20 21 21 22 22 21 21 21 21 21 22 22 22 21 21 20 19 19 19 19 19 18 18 18 18 17 17 17 17 16 16 16 15 15 15 15 14 14 14 14 14 14 13 13 13 13 13 13 13 13 13 13 13 13 13 13 13 13 13
27 27 27 27 28 28 28 27 27 27 26 25 24 23 23 23 23 23 22 22 22 21 21 21 21 21 21 21 21 22 22 22 21 21 21 22 22 22 22 22 21 21 20 19 19 19 19 19 19 18 18 18 18 17 17 17 16 16 16 15 15 15 15 14 14 14 14 13 13 13 13 13 13 13 13 13 13 13 13 13 13 13 13 13 13 13
27 27 27 27 27 27 27 27 27 26 25 24 23 23 23 23 23 22 22 22 21 21 21 21 21 21 21 21 22 22 22 22 21 21 21 22 22 22 21 21 21 20 20 19 19 19 19 19 19 18 18 18 18 17 17 16 16 16 16 15 15 15 14 14 14 13 13 13 13 13 13 13 13 13 13 13 13 13 13 13 13 13 13 13 13 14
27 27 27 27 27 27 27 27 26 25 25 24 23 23 23 23 22 22 22 22 21 21 21 21 21 21 21 22 22 22 22 22 22 22 22 22 22 21 21 21 21 20 20 20 20 19 19 19 19 18 18 18 18 17 17 16 16 16 15 15 15 14 14 13 13 13 13 13 13 13 13 13 13 13 13 13 13 13 13 13 13 13 13 13 14 14
27 27 27 27 27 27 27 26 26 25 25 24 23 23 23 22 22 22 22 21 21 21 21 21 21 21 22 22 22 22 22 22 22 22 22 22 22 21 21 21 21 20 20 20 20 20 19 19 19 18 18 18 17 17 16 16 16 15 15 15 14 14 13 13 13 12 12 12 12 13 13 13 13 13 14 14 14 14 14 14 14 14 14 14 14 14
27 27 27 27 27 26 26 26 26 25 25 24 23 23 23 22 22 22 22 21 21 21 21 21 21 21 22 22 22 23 23 23 23 23 22 22 21 21 21 21 21 21 20 20 20 20 20 19 19 18 18 18 17 17 16 16 15 15 14 14 14 13 13 12 12 12 12 12 12 13 13 13 14 14 14 14 14 14 14 14 14 14 14 15 15 15
27 27 27 27 27 26 26 26 26 25 24 23 23 23 23 22 22 22 22 22 21 21 21 21 21 22 22 22 23 23 23 23 23 23 22 22 21 21 21 21 21 21 21 20 20 20 20 19 19 18 18 17 17 16 16 15 15 15 14 13 13 13 12 12 12 12 12 12 12 13 13 14 14 14 14 14 14 15 15 15 15 15 15 15 16 16
26 26 27 27 27 26 26 26 25 25 24 23 23 23 23 23 22 22 22 22 22 22 22 22 22 22 23 23 23 23 23 23 23 22 22 22 21 21 21 21 21 21 21 21 21 20 20 19 19 18 18 17 17 16 16 15 15 14 14 13 13 12 12 12 12 12 12 12 13 13 14 14 14 14 15 15 15 15 15 16 16 16 16 16 16 17
27 27 27 27 27 27 26 26 25 25 24 23 23 23 23 23 23 22 22 22 22 22 22 22 22 23 23 23 24 24 23 23 23 22 22 22 22 22 22 22 21 21 21 21 21 20 20 19 19 18 18 17 17 16 16 15 14 14 13 13 12 12 12 12 12 12 12 13 13 14 14 14 15 15 15 16 16 16 16 16 16 17 17 17 17 18
27 27 27 27 27 27 26 26 25 24 24 23 23 23 23 23 23 23 22 22 22 22 22 23 23 23 23 24 24 24 23 23 23 23 22 22 22 22 22 22 22 21 21 21 21 20 20 19 19 18 18 17 17 16 16 15 15 14 13 13 13 13 13 13 13 13 13 13 14 14 15 15 15 15 16 16 16 17 17 17 17 18 18 18 18 18
27 28 28 28 27 27 26 26 25 24 24 24 24 24 23 23 23 23 23 23 23 23 23 23 23 24 24 24 24 24 23 23 23 23 23 23 23 23 23 22 22 22 21 21 21 20 20 19 19 18 18 17 17 16 16 15 15 14 14 13 13 13 13 14 14 14 14 14 14 15 15 15 16 16 16 17 17 17 18 18 18 18 19 19 19 19
28 28 28 28 27 27 26 25 25 25 24 24 24 24 24 24 23 23 23 23 23 23 24 24 24 24 24 24 24 24 23 23 23 23 23 23 23 23 23 23 22 22 22 21 21 20 20 19 19 18 18 17 17 16 16 15 15 15 14 14 14 14 14 14 14 15 15 15 15 15 16 16 16 16 17 17 17 18 18 19 19 19 19 20 20 20
28 28 28 28 27 27 26 25 25 25 25 25 25 25 24 24 24 24 24 24 24 24 24 24 24 25 25 25 24 24 24 24 24 24 24 24 24 23 23 23 23 22 22 21 21 20 20 19 19 18 18 17 17 16 16 16 15 15 15 15 14 14 14 15 15 15 15 16 16 16 16 16 16 17 17 18 18 18 19 19 20 20 20 20 20 20
28 28 28 28 27 27 26 25 25 25 26 26 26 25 25 25 24 24 24 25 25 25 25 25 25 25 25 25 25 24 24 24 24 24 24 24 24 24 24 23 23 22 22 21 21 20 20 19 19 18 18 17 17 16 16 16 16 16 15 15 15 15 15 15 16 16 16 16 17 17 17 17 17 17 18 18 19 19 20 20 20 21 21 21 21 21
29 28 28 28 27 26 26 26 26 26 26 26 26 26 26 25 25 25 25 25 26 26 26 26 26 25 25 25 25 25 25 24 25 25 25 25 24 24 24 23 23 22 22 22 21 20 20 19 19 18 18 17 17 17 16 16 16 16 16 16 16 16 16 16 16 16 17 17 17 17 17 18 18 18 19 19 20 20 21 21 21 21 21 21 21 21
29 29 28 28 27 27 26 26 26 27 27 27 27 27 26 26 26 26 26 27 27 27 27 27 26 26 26 26 25 25 25 25 25 25 25 25 25 24 24 24 23 23 22 22 21 21 20 19 19 18 18 18 17 17 17 16 16 16 16 16 16 16 16 16 16 17 17 17 17 18 18 18 19 19 20 20 20 21 21 21 22 21 21 21 21 22
Wind_Direction
255 257 259 260 262 266 270 274 278 280 281 282 283 284 285 285 285 285 286 287 288 289 291 292 293 294 295 296 297 297 297 297 298 299 299 298 296 294 293 291 289 287 285 283 283 284 285 288 291 294 296 297 297 297 295 293 291 289 286 284 283 281 280 280 279 278 277 274 269 262 253 246 243 241 241 242 244 247 249 252 253 254 255 256 258 259
257 257 258 260 263 268 272 274 276 278 280 281 282 283 283 283 283 284 284 285 286 288 289 291 292 293 293 294 294 295 295 296 297 297 298 297 297 297 296 295 293 289 285 283 281 282 284 287 290 292 294 295 295 294 292 290 288 285 283 281 279 278 277 277 276 274 271 266 259 251 245 242 239 239 241 243 245 248 250 252 255 257 259 260 262 262
257 256 257 260 264 268 271 273 275 277 279 280 281 281 282 282 282 282 283 284 285 287 288 290 291 291 292 292 292 293 293 295 296 296 297 297 298 298 298 297 295 292 290 287 285 285 286 287 289 291 292 292 292 291 289 287 284 282 280 278 277 275 274 273 271 268 263 257 250 245 242 241 241 242 243 245 247 249 252 254 257 259 261 263 264 264
255 255 256 260 264 267 270 273 275 277 279 279 280 280 280 280 281 281 282 283 285 287 288 289 289 290 290 290 291 291 292 294 295 296 297 298 298 298 297 296 294 293 292 290 289 288 288 288 289 290 290 290 289 287 285 283 281 279 277 275 274 272 270 268 265 261 255 249 244 241 241 241 242 244 244 246 248 251 253 256 259 261 263 264 265 265
252 254 257 261 264 267 271 273 276 277 278 278 279 279 279 279 280 281 282 284 285 287 288 288 289 289 289 289 290 290 292 293 295 296 297 298 298 297 295 294 292 292 291 291 290 289 288 288 288 288 288 287 286 284 282 280 278 276 274 272 271 268 266 263 258 253 247 243 240 239 240 241 242 243 245 247 249 252 255 257 260 261 263 264 265 267
251 254 258 262 265 268 272 274 276 276 277 277 277 278 278 279 280 281 283 284 286 287 287 288 288 288 288 288 289 290 291 293 295 296 297 297 296 294 292 291 290 290 290 290 289 289 288 287 287 287 286 284 283 281 279 277 275 273 271 269 267 264 261 257 251 246 241 239 237 238 239 240 242 243 246 248 251 253 256 258 260 262 263 264 266 268
253 256 260 263 266 269 272 274 275 275 275 275 276 277 278 279 281 282 284 285 286 286 287 287 287 287 287 287 288 289 291 292 294 295 296 295 294 292 290 288 288 289 289 289 288 287 286 286 285 284 283 281 279 278 276 274 273 271 268 265 262 259 255 250 245 241 238 236 236 237 239 241 243 244 247 249 252 254 256 258 259 261 263 265 267 269
256 257 260 263 266 269 271 272 273 274 274 275 276 277 279 280 282 283 284 285 285 286 286 286 286 286 286 287 288 289 290 291 293 294 294 293 291 289 287 287 287 288 288 287 286 285 284 283 282 281 280 278 276 275 273 272 270 268 265 261 257 253 249 245 241 238 236 236 236 238 240 242 244 246 248 250 252 254 256 258 260 261 263 266 267 270
257 258 261 264 266 269 270 271 272 273 274 275 276 277 279 281 282 283 284 285 285 285 285 285 285 285 285 286 287 288 289 290 291 292 291 290 288 287 286 286 286 287 286 285 284 283 281 280 279 278 276 274 273 272 271 270 268 265 261 257 252 248 243 240 237 236 235 235 237 238 240 243 245 247 248 250 252 254 256 258 260 262 264 266 268 270
258 260 262 265 267 268 269 270 271 272 274 275 277 278 279 281 282 283 284 284 284 285 285 285 285 285 285 285 286 287 288 289 290 290 289 288 286 285 285 285 285 285 284 283 282 280 279 277 276 274 272 271 270 269 268 267 265 262 258 253 249 244 240 237 235 235 234 235 237 238 240 243 244 247 249 251 253 255 257 260 261 263 265 267 269 271
259 262 264 266 267 268 269 270 270 272 273 275 277 279 280 281 282 282 283 283 283 284 284 285 285 285 285 285 285 286 287 288 288 287 286 285 285 284 284 284 284 284 283 281 280 278 276 274 273 271 269 267 266 265 265 264 262 259 256 251 246 242 238 236 234 234 234 235 237 238 241 243 245 247 249 252 254 256 258 260 262 264 266 267 269 270
262 265 266 267 268 268 269 270 271 272 274 275 277 279 280 280 281 281 281 282 283 283 284 284 284 284 284 284 285 285 286 286 286 285 285 284 283 283 283 283 283 282 281 279 277 275 273 271 269 267 265 263 262 262 262 261 260 257 254 249 245 241 237 235 234 234 234 235 237 239 241 243 246 248 250 252 254 257 259 261 262 264 265 267 268 269
266 268 268 269 269 269 270 271 272 273 274 276 277 278 279 279 280 280 281 281 282 282 283 283 283 283 283 283 284 285 285 284 284 283 283 282 282 282 281 281 281 280 279 277 274 272 270 268 266 264 262 260 259 259 259 259 258 255 252 248 243 239 236 235 234 234 234 235 237 239 242 244 246 249 251 253 255 257 258 260 262 263 264 266 267 268
268 268 269 269 269 270 271 272 273 274 275 276 277 277 277 278 279 280 280 281 281 281 281 281 281 281 281 282 283 284 284 283 282 282 281 280 280 280 280 279 279 278 277 274 271 269 267 266 264 261 259 257 256 257 257 257 255 253 249 245 241 238 235 234 234 234 235 236 238 240 242 245 247 249 251 253 254 256 258 259 261 262 263 264 265 266
268 268 268 269 269 270 271 273 274 275 276 276 276 277 277 278 278 279 279 280 280 280 280 279 279 280 280 281 281 282 282 281 281 280 279 279 278 278 278 278 277 276 273 270 267 265 264 263 261 259 256 254 254 254 254 254 252 249 246 242 239 236 234 233 233 234 236 237 239 241 243 245 247 248 250 252 253 255 257 258 259 260 261 262 263 265
267 268 268 269 270 271 272 274 275 276 276 277 277 277 277 277 278 278 278 278 278 278 278 278 278 278 279 279 279 280 280 280 279 278 277 277 277 277 277 276 275 273 270 266 264 262 261 260 258 256 253 252 251 251 251 250 248 245 242 239 237 235 233 233 233 235 237 238 240 242 243 245 246 248 249 251 252 254 255 257 258 258 259 260 261 263
266 268 269 270 271 272 273 274 275 276 277 277 277 277 277 277 277 277 277 277 277 277 277 277 277 277 277 277 277 277 278 278 277 276 276 276 276 276 276 275 273 270 266 262 260 259 258 257 256 253 251 249 248 248 247 245 243 241 238 236 235 233 233 233 234 236 237 239 240 242 243 245 246 248 249 250 252 253 254 256 256 257 258 259 260 262
266 267 269 270 271 272 273 274 275 276 277 277 277 278 277 277 276 276 276 276 276 276 276 276 275 275 275 275 275 275 274 274 274 274 274 275 275 275 275 274 271 267 262 259 257 256 256 255 253 251 248 246 245 244 242 241 239 236 235 234 233 233 233 234 235 236 238 239 241 242 243 245 246 247 248 250 251 253 254 255 256 256 257 258 259 260
266 267 268 270 271 272 273 275 276 276 277 278 278 278 277 277 276 276 276 276 275 275 275 274 274 273 273 273 273 273 272 271 271 272 273 274 274 274 274 272 268 263 258 255 254 254 253 252 250 248 246 244 242 240 238 236 234 233 232 232 232 232 233 234 236 237 238 239 241 242 243 244 246 247 248 250 251 252 254 254 255 256 257 258 259 260
266 267 269 270 272 273 274 275 276 277 277 278 278 277 277 277 276 276 275 275 274 273 272 272 271 271 270 270 270 270 269 269 269 270 272 273 273 273 272 269 265 260 255 253 252 251 251 249 247 245 243 240 238 235 233 232 231 230 230 231 231 232 233 235 236 237 238 239 240 242 243 244 246 247 248 250 251 252 253 254 255 256 257 258 259 260
267 268 270 271 273 274 275 275 276 277 277 277 277 277 276 276 276 275 275 274 273 271 270 269 269 268 268 268 268 267 267 267 268 269 271 271 271 271 269 266 262 257 253 251 251 250 249 246 244 242 239 236 233 230 229 228 228 228 229 230 230 231 233 234 236 237 238 239 240 241 243 244 246 247 248 249 251 252 253 254 255 256 257 258 259 260
269 271 272 272 274 275 276 276 276 277 277 277 277 276 276 276 275 275 274 273 272 270 268 267 266 266 266 265 264 264 264 266 267 269 270 270 269 268 266 263 259 254 251 250 249 248 246 244 241 238 235 232 229 227 225 225 226 227 228 229 229 231 232 234 235 236 237 238 240 241 243 244 245 247 248 249 250 252 253 254 255 256 257 258 259 260
271 272 273 274 275 276 277 277 277 277 277 277 276 276 275 275 275 275 274 272 271 269 267 266 265 263 262 261 261 261 263 265 267 268 269 268 266 264 262 260 256 252 249 248 248 246 243 240 237 234 231 228 225 224 223 224 224 225 227 227 228 229 231 233 234 236 237 238 240 241 242 244 245 247 248 249 250 251 253 254 255 257 258 259 259 260
271 272 274 275 276 276 277 277 278 278 277 277 276 275 275 274 274 273 273 271 269 268 266 264 262 261 259 259 259 260 261 263 265 266 266 265 262 260 258 256 253 250 248 247 246 244 240 236 233 230 227 225 223 222 222 222 224 224 225 226 227 229 230 232 234 235 237 238 239 241 242 244 245 247 248 249 250 251 252 254 255 257 258 259 260 261
271 272 273 275 275 276 277 277 278 277 277 277 276 275 274 274 273 272 271 270 268 266 264 262 260 258 258 257 257 258 260 262 263 264 264 262 258 255 254 253 251 248 246 245 243 240 236 232 229 226 224 222 221 221 221 222 223 224 224 225 227 228 230 232 234 236 237 239 240 241 243 244 246 247 248 250 251 252 253 254 256 257 258 260 261 262
271 272 273 274 275 276 276 277 277 277 277 276 276 275 274 273 272 271 270 268 267 265 262 260 258 257 256 255 255 256 257 259 261 261 261 258 254 252 251 250 249 247 244 242 240 236 232 228 225 223 221 220 220 220 221 222 223 223 224 225 226 228 230 233 235 236 238 239 241 242 243 245 246 248 249 251 252 253 255 256 257 258 260 261 262 263
271 272 273 274 275 275 276 277 277 277 277 276 276 275 274 273 272 270 269 267 265 262 260 258 256 255 254 253 253 253 255 257 258 258 257 254 251 249 249 248 247 244 241 239 236 232 227 224 222 220 219 219 219 220 220 222 222 223 224 225 227 229 231 233 235 237 239 240 242 243 244 245 247 248 250 252 253 255 256 258 259 260 261 262 263 264
270 271 272 273 274 275 276 277 277 277 277 277 276 275 274 273 271 269 267 265 262 259 257 256 254 252 251 250 250 251 252 254 255 255 254 251 248 247 246 246 244 241 237 234 230 226 223 220 219 218 218 218 219 219 220 221 222 223 224 226 228 230 232 234 236 238 239 241 242 243 245 246 248 249 251 252 254 256 258 259 260 261 262 264 265 266
270 271 272 273 275 276 277 277 278 278 278 278 277 276 275 273 271 268 264 261 258 256 255 254 252 250 249 248 248 249 250 252 253 253 251 248 246 245 244 243 240 236 232 229 225 221 219 217 217 217 217 217 218 219 220 221 222 223 225 227 229 231 233 235 237 239 240 241 243 244 245 247 248 250 251 253 255 257 258 260 261 262 263 264 266 267
271 272 273 274 275 277 278 278 279 279 279 279 278 277 275 273 269 265 261 258 255 254 252 251 250 248 247 246 247 248 249 250 251 250 248 245 243 242 241 238 235 231 227 223 220 217 216 216 216 216 216 217 218 219 220 221 223 224 226 228 230 232 234 236 237 239 240 242 243 244 246 247 249 251 252 254 256 258 259 260 261 262 264 265 266 267
272 273 275 276 277 278 279 280 280 281 281 280 280 278 275 272 267 262 258 255 253 251 250 249 247 246 245 245 245 246 247 248 248 247 245 242 240 238 236 233 229 226 222 219 216 214 214 215 215 216 216 217 218 219 220 222 223 225 227 229 231 233 235 236 238 239 241 243 244 246 247 249 251 252 254 256 258 259 261 262 263 264 265 266 267 268
274 275 277 279 280 281 281 282 282 283 282 282 281 278 274 270 264 259 255 252 250 249 248 246 244 243 243 243 244 244 244 244 244 243 241 238 236 233 230 227 223 220 218 216 213 212 213 214 215 215 216 217 218 220 221 222 224 226 228 230 232 234 235 237 238 240 242 244 246 247 249 251 253 255 257 258 260 261 262 264 265 266 267 267 268 269
275 277 279 281 282 283 284 284 284 284 284 283 281 277 272 267 261 256 252 250 248 247 245 243 241 240 240 241 241 241 241 242 241 239 237 234 231 228 225 221 218 216 215 213 212 211 212 213 215 215 216 217 219 220 222 223 225 227 229 231 232 234 236 238 240 241 244 246 248 250 252 254 255 257 259 260 262 263 264 265 266 267 267 268 268 269
277 279 281 282 284 285 285 285 286 286 285 283 280 275 270 263 257 253 249 247 245 244 242 239 238 237 237 238 238 238 239 239 238 235 233 230 227 223 220 217 215 214 213 212 211 211 212 213 215 215 216 218 220 221 222 224 225 227 229 231 233 235 237 239 241 243 245 248 250 252 254 255 257 259 260 262 263 263 264 265 266 266 266 267 267 268
278 280 282 284 285 286 287 287 287 287 286 283 279 273 266 259 253 249 246 244 242 241 239 237 236 235 235 235 235 235 235 235 234 231 227 225 222 219 216 213 212 212 212 211 211 212 212 214 216 217 218 219 220 222 223 224 226 228 230 232 233 236 238 240 243 245 247 249 251 253 255 256 258 259 261 262 262 263 264 264 264 265 265 266 266 267
279 281 284 285 287 287 288 288 288 287 285 282 276 269 261 255 249 245 243 241 239 237 236 235 234 234 233 233 233 232 232 232 230 226 222 219 217 215 213 211 211 212 212 212 212 213 214 216 217 218 219 220 221 222 224 225 227 228 230 232 235 237 239 241 243 246 248 249 251 253 255 257 258 259 260 261 262 262 263 263 263 264 264 265 266 267
280 282 284 286 287 288 288 288 288 286 284 279 272 265 257 251 246 243 240 239 237 235 234 233 232 231 231 230 230 230 230 228 226 222 218 216 214 213 211 211 212 212 212 212 213 214 216 217 218 219 220 220 221 223 224 225 227 229 231 233 235 238 240 242 244 246 248 249 251 253 255 257 258 259 260 261 262 262 262 262 263 264 264 265 266 268
280 283 285 286 287 288 288 288 287 284 281 275 268 261 254 248 244 241 239 237 235 234 232 231 231 229 229 228 227 226 225 223 220 217 215 213 212 212 212 212 213 213 214 214 214 216 217 218 218 219 220 221 222 223 225 226 228 229 232 234 236 238 240 242 244 246 247 249 251 253 255 257 258 259 260 261 261 262 262 263 263 264 265 266 267 268
280 283 284 286 287 288 288 286 284 281 277 272 265 258 252 246 243 240 237 235 234 232 231 230 229 228 226 225 224 222 220 218 215 214 213 212 212 212 213 214 214 215 216 216 217 217 218 219 219 219 220 221 222 224 225 227 229 231 232 234 236 238 240 242 244 246 248 250 252 254 256 257 259 260 260 261 261 262 262 263 263 264 265 266 268 269
280 282 284 286 287 287 285 283 280 277 274 270 264 257 251 246 242 239 237 235 233 232 230 229 227 225 224 222 220 218 216 214 212 211 211 212 213 214 215 216 216 217 217 217 217 218 218 219 219 220 220 221 223 224 226 228 229 231 233 234 236 238 239 242 245 247 250 252 254 255 257 258 259 260 260 260 261 261 262 262 263 264 266 267 269 270
279 282 284 286 286 284 282 279 277 275 272 268 262 255 249 245 241 238 236 234 232 231 229 228 225 223 220 218 216 214 212 211 210 210 211 213 214 216 217 218 218 218 218 217 218 218 218 219 219 220 221 222 224 225 226 228 230 231 232 234 236 237 240 242 246 249 252 254 256 257 258 259 259 259 259 260 260 260 261 262 263 265 266 268 270 272
279 282 284 285 284 282 279 277 275 273 270 265 259 253 248 244 240 238 235 234 232 230 228 226 223 220 218 216 214 211 210 209 210 211 213 215 217 218 219 220 219 219 218 217 218 218 218 219 219 220 221 223 224 225 226 227 229 230 231 232 235 237 240 244 247 250 253 255 257 258 258 259 259 259 259 259 260 260 261 262 264 265 268 270 272 274
279 281 283 283 281 279 277 275 273 270 267 262 256 251 246 243 239 237 234 232 230 228 226 224 220 217 214 213 212 211 210 209 211 213 215 217 219 220 221 221 220 219 219 218 218 218 219 219 219 220 222 223 224 225 225 226 227 228 230 232 235 239 243 246 249 252 254 256 257 258 258 259 259 259 259 259 260 260 261 263 265 267 269 272 274 276
278 280 281 280 279 277 275 273 270 267 263 258 253 249 245 241 238 235 233 230 228 226 223 221 218 215 212 211 211 210 211 211 212 215 217 219 220 221 221 221 220 219 219 218 218 218 219 219 220 220 221 222 223 224 225 225 226 228 230 232 236 240 244 247 250 252 254 256 257 258 258 259 259 259 260 260 260 261 263 265 267 269 271 274 276 277
277 278 279 279 278 276 273 270 267 263 259 255 251 246 243 240 237 234 231 228 226 223 221 218 215 212 211 211 211 211 212 213 215 217 219 220 221 221 221 220 220 219 219 218 218 219 219 220 220 220 221 222 223 223 224 225 227 229 231 235 238 242 246 249 252 254 256 257 258 259 259 259 260 260 261 261 262 263 265 267 269 271 273 275 276 278
276 277 278 278 277 275 272 268 263 259 255 252 248 244 241 238 235 232 229 227 223 221 218 216 214 212 211 211 212 213 215 216 217 218 219 220 221 221 221 220 220 219 219 219 219 219 219 220 220 220 221 222 223 224 225 227 229 231 234 238 242 246 250 253 255 257 258 258 259 259 260 260 261 261 262 262 264 265 266 268 270 272 274 275 276 277
274 276 277 277 276 274 270 265 260 255 251 248 245 242 239 236 234 231 228 225 222 219 216 215 213 212 212 213 214 215 217 218 219 220 219 220 220 220 220 220 220 219 219 219 219 219 219 220 220 221 221 222 223 225 228 230 232 235 238 242 245 249 252 256 258 259 260 260 260 260 261 261 262 262 262 264 265 266 268 269 270 272 273 274 275 276
273 275 276 276 275 273 268 262 256 251 247 245 243 240 237 235 232 229 226 224 221 218 215 214 213 213 213 215 216 217 218 219 220 220 220 219 219 219 219 219 219 219 219 219 219 219 220 220 221 222 223 224 226 228 231 234 237 240 242 245 248 251 253 257 259 261 262 262 262 262 262 262 262 263 264 265 266 267 268 270 271 272 273 273 274 275
272 273 274 275 273 270 265 258 252 247 244 242 240 238 236 234 231 228 225 223 220 217 215 214 214 214 215 217 218 219 220 220 220 220 219 219 219 219 218 218 219 219 219 219 220 220 220 221 222 223 225 227 229 232 235 238 241 244 246 248 250 252 255 257 260 262 263 264 264 264 264 264 265 265 266 266 267 268 269 270 271 272 272 273 274 274
270 271 272 272 271 267 261 254 248 244 241 240 238 237 235 233 230 228 225 223 220 217 215 215 215 215 217 218 219 220 221 220 220 219 219 218 218 218 218 218 218 219 219 220 220 221 221 223 224 226 228 230 233 235 238 241 244 246 248 251 253 254 256 258 260 262 263 264 265 266 267 267 267 268 268 269 269 270 271 271 272 272 273 273 274 274
269 270 270 270 268 264 258 251 245 241 239 237 237 236 234 232 230 227 225 222 220 217 216 215 216 217 218 219 220 220 220 220 219 219 218 218 218 218 218 218 218 219 220 221 222 223 224 225 227 229 231 234 236 239 241 243 245 248 250 252 254 256 258 259 260 262 263 264 265 267 268 269 270 271 271 271 271 272 272 272 273 273 274 274 275 275
Height
3105 3106 3107 3107 3107 3107 3108 3108 3108 3107 3107 3107 3106 3106 3105 3105 3105 3105 3105 3105 3105 3105 3105 3104 3104 3103 3103 3103 3102 3102 3102 3102 3101 3101 3100 3100 3099 3098 3098 3097 3097 3097 3097 3098 3098 3098 3098 3098 3097 3097 3097 3097 3096 3096 3095 3095 3095 3094 3094 3094 3094 3094 3094 3094 3094 3094 3094 3094 3095 3095 3095 3096 3096 3096 3096 3097 3097 3097 3097 3098 3098 3099 3099 3100 3100 3100
3103 3104 3105 3105 3105 3105 3105 3106 3106 3105 3105 3104 3104 3103 3103 3103 3103 3103 3103 3103 3103 3103 3103 3102 3102 3102 3101 3101 3101 3101 3100 3100 3100 3099 3099 3098 3097 3097 3096 3096 3096 3096 3096 3096 3096 3096 3096 3096 3096 3095 3095 3095 3094 3094 3094 3093 3093 3093 3093 3092 3092 3092 3092 3092 3092 3093 3093 3093 3094 3094 3094 3095 3095 3095 3096 3096 3096 3097 3097 3097 3098 3098 3099 3099 3099 3100
3101 3102 3102 3103 3103 3103 3103 3103 3103 3103 3102 3102 3102 3101 3101 3101 3101 3101 3101 3101 3101 3101 3101 3101 3100 3100 3099 3099 3099 3099 3098 3098 3098 3098 3097 3097 3096 3095 3095 3094 3094 3094 3094 3094 3094 3094 3094 3094 3094 3093 3093 3093 3093 3092 3092 3092 3092 3092 3091 3091 3091 3091 3091 3091 3092 3092 3092 3092 3093 3093 3094 3094 3094 3095 3095 3095 3096 3096 3096 3097 3097 3097 3098 3098 3098 3099
3098 3099 3100 3101 3101 3101 3101 3101 3101 3101 3100 3100 3099 3099 3099 3099 3099 3099 3099 3099 3099 3099 3099 3098 3098 3098 3097 3097 3097 3097 3097 3097 3096 3096 3095 3095 3094 3093 3093 3092 3092 3092 3092 3092 3092 3092 3092 3092 3092 3092 3092 3091 3091 3091 3091 3090 3090 3090 3090 3090 3090 3090 3090 3090 3091 3091 3091 3092 3092 3092 3093 3093 3094 3094 3094 3095 3095 3095 3096 3096 3096 3097 3097 3097 3098 3098
3096 3097 3097 3098 3098 3098 3098 3098 3098 3098 3098 3097 3097 3097 3097 3097 3097 3097 3097 3097 3097 3097 3097 3096 3096 3096 3095 3095 3095 3095 3095 3095 3094 3094 3093 3093 3092 3092 3092 3091 3091 3091 3091 3091 3091 3091 3090 3090 3090 3090 3090 3090 3089 3089 3089 3089 3089 3089 3088 3088 3089 3089 3089 3089 3090 3090 3090 3091 3091 3092 3092 3092 3093 3093 3094 3094 3094 3095 3095 3095 3096 3096 3096 3097 3097 3097
3094 3094 3095 3095 3096 3096 3096 3096 3096 3096 3096 3095 3095 3095 3095 3095 3094 3094 3094 3094 3094 3094 3094 3094 3094 3093 3093 3093 3093 3093 3092 3092 3092 3092 3092 3091 3091 3091 3090 3090 3089 3089 3089 3089 3089 3089 3088 3088 3088 3088 3088 3088 3088 3088 3088 3087 3087 3087 3087 3087 3087 3088 3088 3088 3089 3089 3089 3090 3090 3091 3091 3092 3092 3092 3093 3093 3093 3094 3094 3094 3095 3095 3096 3096 3096 3096
3092 3092 3092 3093 3093 3093 3093 3093 3093 3093 3093 3093 3093 3093 3092 3092 3092 3092 3092 3092 3092 3092 3092 3092 3092 3091 3091 3091 3091 3091 3091 3091 3090 3090 3090 3090 3089 3089 3088 3088 3087 3087 3087 3087 3087 3087 3087 3087 3087 3087 3086 3086 3086 3086 3086 3086 3086 3086 3086 3086 3087 3087 3087 3087 3088 3088 3089 3089 3090 3090 3091 3091 3092 3092 3092 3092 3093 3093 3093 3094 3094 3095 3095 3095 3095 3096
3089 3089 3090 3090 3091 3091 3091 3091 3091 3091 3091 3091 3091 3091 3090 3090 3090 3090 3090 3090 3090 3090 3090 3090 3089 3089 3089 3088 3088 3089 3089 3089 3088 3088 3088 3088 3087 3087 3087 3086 3086 3086 3086 3086 3085 3085 3085 3085 3085 3085 3085 3085 3085 3085 3085 3085 3085 3085 3085 3085 3086 3086 3086 3087 3087 3087 3088 3088 3089 3089 3090 3090 3091 3091 3091 3092 3092 3092 3093 3093 3093 3094 3094 3094 3094 3095
3086 3087 3087 3088 3088 3088 3088 3088 3089 3089 3089 3088 3088 3088 3088 3088 3087 3087 3087 3087 3087 3087 3087 3087 3087 3087 3087 3087 3087 3087 3087 3087 3087 3087 3086 3086 3086 3085 3085 3085 3084 3084 3084 3084 3084 3083 3083 3083 3083 3083 3083 3083 3083 3083 3083 3083 3084 3084 3084 3084 3085 3085 3085 3086 3086 3087 3087 3087 3088 3089 3089 3089 3090 3090 3091 3091 3091 3092 3092 3092 3092 3093 3093 3093 3093 3094
3084 3084 3085 3085 3086 3086 3086 3086 3086 3087 3086 3086 3086 3086 3086 3086 3085 3085 3085 3085 3085 3085 3085 3085 3085 3085 3084 3084 3084 3085 3085 3085 3085 3085 3085 3084 3084 3083 3083 3083 3082 3082 3082 3082 3082 3082 3082 3082 3082 3082 3082 3082 3082 3082 3082 3082 3082 3083 3083 3083 3084 3084 3084 3085 3085 3086 3086 3087 3087 3088 3088 3089 3089 3089 3090 3090 3090 3091 3091 3092 3092 3092 3092 3092 3093 3093
3081 3082 3082 3083 3083 3083 3084 3084 3084 3084 3084 3084 3084 3084 3084 3083 3083 3083 3083 3082 3082 3082 3082 3082 3082 3082 3082 3082 3082 3083 3083 3083 3083 3083 3082 3082 3082 3082 3081 3081 3081 3081 3080 3080 3080 3080 3080 3080 3081 3081 3081 3081 3081 3081 3081 3081 3082 3082 3082 3082 3083 3083 3084 3084 3085 3085 3086 3086 3087 3087 3087 3088 3088 3088 3089 3089 3090 3090 3090 3091 3091 3091 3092 3092 3092 3092
3078 3079 3080 3080 3081 3081 3081 3081 3082 3082 3082 3082 3082 3082 3081 3081 3081 3080 3080 3080 3080 3080 3080 3080 3080 3080 3079 3080 3080 3081 3081 3081 3081 3081 3081 3080 3080 3080 3079 3079 3079 3079 3078 3078 3078 3078 3079 3079 3079 3079 3079 3079 3080 3080 3080 3080 3080 3081 3081 3082 3082 3082 3083 3083 3084 3084 3085 3085 3086 3086 3087 3087 3087 3087 3088 3088 3089 3089 3089 3090 3090 3090 3091 3091 3091 3091
3076 3077 3077 3077 3078 3078 3079 3079 3079 3079 3080 3080 3080 3079 3079 3078 3078 3078 3078 3078 3078 3078 3078 3077 3077 3077 3077 3077 3077 3078 3079 3079 3079 3079 3078 3078 3078 3078 3077 3077 3077 3077 3077 3077 3077 3077 3077 3077 3077 3078 3078 3078 3078 3078 3079 3079 3079 3080 3080 3081 3081 3082 3082 3082 3083 3083 3084 3084 3085 3085 3086 3086 3086 3087 3087 3087 3088 3088 3088 3089 3089 3089 3090 3090 3090 3091
3073 3074 3075 3075 3076 3076 3076 3076 3077 3077 3077 3077 3077 3077 3076 3076 3076 3076 3075 3075 3076 3076 3076 3075 3075 3075 3075 3075 3076 3076 3076 3077 3077 3077 3077 3076 3076 3076 3075 3075 3075 3075 3075 3075 3075 3075 3076 3076 3076 3076 3077 3077 3077 3077 3077 3078 3078 3079 3079 3079 3080 3081 3081 3082 3082 3082 3083 3083 3084 3084 3085 3085 3086 3086 3086 3087 3087 3087 3087 3088 3088 3089 3089 3089 3089 3090
3071 3072 3072 3072 3073 3073 3074 3074 3074 3074 3074 3074 3074 3074 3074 3074 3073 3073 3073 3073 3073 3073 3073 3073 3072 3072 3073 3073 3073 3074 3074 3074 3074 3075 3074 3074 3074 3073 3073 3073 3073 3073 3073 3073 3073 3074 3074 3074 3074 3075 3075 3075 3076 3076 3076 3077 3077 3077 3078 3078 3079 3080 3080 3081 3081 3082 3082 3082 3083 3083 3084 3084 3085 3085 3085 3086 3086 3087 3087 3087 3087 3088 3088 3088 3089 3089
3069 3069 3069 3070 3070 3071 3071 3071 3072 3072 3072 3072 3072 3072 3071 3071 3071 3071 3071 3070 3070 3070 3070 3070 3070 3070 3070 3071 3072 3072 3072 3072 3072 3072 3072 3072 3072 3072 3071 3071 3071 3072 3072 3072 3072 3072 3072 3073 3073 3073 3073 3074 3074 3075 3075 3075 3076 3076 3077 3077 3078 3079 3079 3080 3080 3081 3081 3082 3082 3082 3083 3083 3084 3084 3084 3085 3085 3086 3086 3086 3087 3087 3087 3087 3088 3088
3067 3067 3067 3067 3067 3068 3068 3068 3069 3069 3069 3069 3069 3069 3069 3068 3068 3068 3068 3068 3068 3068 3068 3068 3068 3067 3068 3068 3069 3070 3070 3069 3069 3069 3070 3069 3069 3069 3069 3069 3070 3070 3070 3070 3070 3070 3071 3071 3072 3072 3072 3072 3073 3073 3074 3074 3075 3075 3076 3076 3077 3077 3078 3079 3079 3080 3080 3081 3081 3082 3082 3082 3083 3083 3083 3084 3084 3085 3085 3085 3086 3086 3086 3087 3087 3087
3064 3065 3065 3065 3065 3065 3066 3066 3066 3066 3066 3066 3066 3066 3066 3066 3065 3065 3065 3065 3065 3065 3065 3065 3065 3065 3066 3066 3067 3067 3068 3067 3067 3067 3067 3067 3067 3067 3067 3067 3068 3068 3068 3068 3069 3069 3069 3070 3070 3070 3071 3071 3072 3072 3072 3073 3073 3074 3075 3075 3076 3077 3077 3078 3078 3079 3079 3080 3080 3081 3081 3082 3082 3082 3082 3083 3083 3084 3084 3084 3085 3085 3086 3086 3086 3086
3062 3062 3062 3062 3062 3062 3063 3063 3064 3064 3064 3064 3063 3063 3063 3062 3062 3062 3062 3062 3063 3063 3062 3062 3062 3063 3063 3064 3064 3065 3065 3064 3064 3064 3065 3065 3065 3065 3065 3066 3066 3067 3067 3067 3067 3067 3067 3068 3068 3069 3069 3070 3070 3071 3071 3072 3072 3073 3073 3074 3075 3076 3076 3077 3077 3077 3078 3078 3079 3080 3080 3080 3081 3081 3082 3082 3082 3083 3083 3083 3084 3084 3085 3085 3085 3085
3059 3059 3060 3060 3060 3060 3060 3061 3061 3061 3061 3061 3061 3060 3060 3059 3059 3059 3060 3060 3060 3060 3060 3060 3060 3060 3061 3061 3062 3062 3062 3062 3062 3062 3062 3063 3063 3063 3063 3064 3064 3065 3065 3065 3065 3066 3066 3067 3067 3067 3068 3068 3069 3069 3070 3071 3071 3072 3072 3073 3074 3074 3075 3076 3076 3077 3077 3077 3078 3078 3079 3079 3080 3080 3081 3081 3081 3082 3082 3082 3083 3083 3083 3084 3084 3084
3056 3057 3057 3057 3057 3057 3057 3058 3058 3058 3058 3058 3058 3057 3057 3056 3056 3057 3057 3057 3057 3057 3057 3057 3057 3058 3058 3059 3059 3059 3059 3059 3059 3060 3061 3061 3061 3061 3061 3062 3062 3063 3063 3063 3064 3064 3064 3065 3065 3066 3066 3067 3067 3068 3069 3069 3070 3071 3072 3072 3073 3073 3074 3075 3075 3076 3076 3077 3077 3077 3078 3078 3079 3079 3080 3080 3080 3081 3081 3082 3082 3082 3082 3083 3083 3083
3053 3053 3054 3054 3054 3054 3054 3055 3055 3056 3056 3055 3055 3054 3054 3053 3053 3054 3054 3054 3054 3054 3055 3055 3055 3056 3056 3057 3057 3057 3056 3057 3057 3057 3058 3059 3059 3059 3059 3060 3060 3061 3062 3062 3062 3062 3063 3063 3064 3064 3065 3066 3066 3067 3067 3068 3069 3070 3070 3071 3072 3072 3073 3073 3074 3074 3075 3075 3076 3077 3077 3077 3078 3078 3079 3079 3079 3080 3080 3080 3081 3081 3082 3082 3082 3082
3051 3051 3051 3051 3051 3051 3051 3052 3052 3052 3052 3052 3052 3051 3051 3051 3051 3051 3051 3051 3052 3052 3052 3052 3053 3053 3054 3054 3054 3054 3054 3054 3055 3055 3056 3057 3057 3057 3057 3058 3058 3059 3060 3060 3060 3061 3061 3062 3062 3063 3064 3064 3065 3066 3066 3067 3068 3068 3069 3070 3071 3071 3072 3072 3073 3073 3074 3074 3075 3075 3076 3076 3077 3077 3077 3078 3078 3079 3079 3079 3080 3080 3080 3081 3081 3081
3048 3048 3048 3048 3048 3048 3048 3048 3049 3049 3049 3049 3049 3048 3048 3048 3048 3048 3048 3049 3049 3049 3049 3050 3050 3050 3051 3052 3052 3052 3052 3052 3052 3053 3054 3055 3055 3055 3055 3056 3057 3057 3058 3058 3059 3059 3060 3060 3061 3062 3062 3063 3064 3064 3065 3066 3067 3067 3068 3069 3069 3070 3071 3071 3072 3072 3073 3073 3074 3074 3075 3075 3075 3076 3076 3077 3077 3077 3078 3078 3078 3079 3079 3079 3080 3080
3046 3046 3046 3046 3046 3046 3045 3045 3046 3046 3046 3046 3046 3045 3045 3045 3045 3045 3046 3046 3046 3047 3047 3047 3047 3048 3048 3049 3049 3049 3050 3050 3050 3051 3052 3052 3053 3053 3053 3054 3055 3056 3056 3057 3057 3057 3058 3059 3059 3060 3061 3062 3062 3063 3064 3065 3065 3066 3067 3067 3068 3069 3070 3070 3071 3071 3072 3072 3072 3073 3073 3074 3074 3075 3075 3076 3076 3076 3077 3077 3077 3078 3078 3078 3078 3079
3043 3043 3043 3043 3043 3043 3042 3042 3042 3042 3043 3043 3042 3042 3042 3042 3042 3042 3043 3043 3043 3043 3044 3044 3045 3045 3046 3047 3047 3047 3047 3047 3048 3049 3050 3050 3051 3051 3052 3052 3053 3054 3054 3055 3055 3056 3057 3057 3058 3059 3060 3060 3061 3062 3063 3063 3064 3065 3066 3067 3067 3068 3068 3069 3070 3070 3071 3071 3071 3072 3072 3073 3073 3073 3074 3074 3075 3075 3076 3076 3076 3077 3077 3077 3077 3077
3040 3040 3040 3040 3040 3040 3040 3040 3040 3040 3040 3039 3039 3039 3039 3039 3039 3039 3040 3040 3041 3041 3041 3041 3042 3043 3043 3044 3044 3045 3045 3045 3046 3047 3047 3048 3049 3049 3050 3050 3051 3052 3053 3053 3054 3055 3056 3056 3057 3057 3058 3059 3060 3061 3062 3062 3063 3064 3065 3065 3066 3067 3067 3068 3068 3069 3069 3070 3070 3071 3071 3072 3072 3072 3073 3073 3073 3074 3074 3075 3075 3075 3075 3076 3076 3076
3038 3038 3038 3038 3037 3037 3037 3037 3037 3037 3037 3036 3036 3036 3036 3036 3036 3036 3037 3037 3038 3038 3038 3039 3039 3040 3041 3042 3042 3042 3042 3043 3044 3045 3045 3046 3047 3047 3048 3049 3050 3050 3051 3052 3052 3053 3054 3055 3055 3056 3057 3058 3058 3059 3060 3061 3062 3062 3063 3064 3065 3065 3066 3067 3067 3067 3068 3068 3069 3069 3070 3070 3071 3071 3072 3072 3072 3072 3073 3073 3073 3074 3074 3074 3074 3075
3035 3035 3035 3035 3035 3035 3034 3034 3034 3033 3033 3033 3033 3033 3033 3033 3033 3033 3034 3034 3035 3035 3035 3036 3037 3038 3038 3039 3039 3040 3040 3041 3042 3042 3043 3044 3045 3045 3046 3047 3048 3049 3049 3050 3051 3052 3052 3053 3054 3055 3056 3057 3057 3058 3059 3060 3061 3061 3062 3063 3063 3064 3065 3065 3066 3066 3067 3067 3068 3068 3068 3069 3069 3070 3070 3071 3071 3071 3072 3072 3072 3072 3073 3073 3073 3073
3032 3032 3032 3032 3032 3032 3032 3031 3031 3031 3030 3030 3030 3030 3030 3030 3030 3031 3031 3032 3032 3032 3033 3034 3035 3035 3036 3037 3037 3037 3038 3039 3040 3040 3041 3042 3043 3043 3044 3045 3046 3047 3047 3048 3049 3050 3051 3052 3053 3054 3054 3055 3056 3057 3058 3058 3059 3060 3061 3062 3062 3063 3063 3064 3065 3065 3066 3066 3067 3067 3067 3068 3068 3068 3069 3069 3070 3070 3070 3071 3071 3071 3071 3072 3072 3072
3029 3030 3030 3029 3029 3029 3028 3028 3028 3027 3027 3027 3027 3027 3027 3027 3027 3027 3028 3028 3029 3030 3031 3031 3032 3033 3034 3034 3034 3035 3036 3037 3037 3038 3039 3040 3041 3042 3042 3043 3044 3045 3046 3047 3048 3049 3050 3051 3052 3052 3053 3054 3055 3056 3057 3057 3058 3059 3059 3060 3061 3062 3062 3063 3063 3064 3064 3065 3065 3066 3066 3066 3067 3067 3067 3068 3068 3069 3069 3069 3070 3070 3070 3070 3070 3070
3027 3027 3027 3027 3026 3026 3026 3025 3025 3025 3024 3024 3024 3024 3024 3024 3024 3025 3025 3026 3027 3027 3028 3029 3030 3031 3031 3032 3032 3033 3034 3035 3035 3036 3037 3038 3039 3040 3041 3042 3042 3043 3045 3046 3047 3048 3049 3049 3050 3051 3052 3053 3054 3054 3055 3056 3057 3057 3058 3059 3059 3060 3061 3061 3062 3062 3063 3063 3064 3064 3065 3065 3065 3066 3066 3067 3067 3067 3067 3068 3068 3068 3069 3069 3069 3069
3024 3024 3024 3024 3023 3023 3023 3022 3022 3022 3022 3021 3021 3021 3021 3021 3022 3022 3023 3023 3024 3025 3026 3027 3027 3028 3029 3030 3031 3031 3032 3032 3033 3034 3035 3036 3037 3038 3039 3040 3041 3042 3043 3044 3045 3047 3047 3048 3049 3050 3051 3052 3052 3053 3054 3055 3055 3056 3057 3057 3058 3059 3059 3060 3060 3061 3062 3062 3062 3063 3063 3064 3064 3064 3065 3065 3066 3066 3066 3067 3067 3067 3067 3067 3068 3068
3021 3021 3021 3021 3021 3020 3020 3020 3019 3019 3019 3018 3018 3018 3018 3019 3019 3020 3020 3021 3022 3023 3024 3025 3025 3026 3027 3027 3028 3029 3030 3031 3032 3032 3033 3034 3035 3036 3037 3038 3040 3041 3042 3043 3044 3045 3046 3047 3047 3048 3049 3050 3051 3052 3052 3053 3054 3055 3056 3056 3057 3057 3058 3058 3059 3060 3060 3061 3061 3062 3062 3062 3063 3063 3063 3064 3064 3065 3065 3065 3066 3066 3066 3066 3066 3067
3018 3018 3018 3018 3018 3017 3017 3017 3017 3017 3016 3016 3016 3016 3016 3017 3017 3017 3018 3019 3020 3021 3022 3022 3023 3024 3025 3026 3026 3027 3027 3028 3029 3031 3032 3033 3034 3035 3036 3037 3038 3039 3041 3042 3043 3044 3045 3045 3046 3047 3048 3049 3050 3051 3051 3052 3053 3053 3054 3055 3055 3056 3057 3057 3058 3058 3059 3059 3060 3060 3060 3061 3061 3062 3062 3062 3063 3063 3063 3064 3064 3064 3065 3065 3065 3065
3015 3015 3015 3015 3015 3015 3014 3014 3014 3014 3014 3013 3013 3014 3014 3014 3015 3015 3016 3017 3018 3018 3019 3020 3021 3022 3023 3023 3024 3025 3025 3027 3028 3029 3030 3031 3032 3033 3034 3036 3037 3038 3039 3041 3042 3042 3043 3044 3045 3046 3047 3048 3048 3049 3050 3051 3051 3052 3053 3053 3054 3055 3055 3056 3056 3057 3057 3058 3058 3058 3059 3059 3060 3060 3060 3061 3061 3062 3062 3062 3063 3063 3063 3064 3064 3064
3012 3013 3013 3012 3012 3012 3012 3012 3012 3011 3011 3011 3011 3012 3012 3012 3013 3013 3014 3015 3016 3017 3017 3018 3019 3020 3021 3022 3022 3023 3024 3025 3026 3027 3029 3030 3031 3032 3033 3035 3036 3037 3038 3039 3040 3041 3042 3043 3044 3045 3046 3047 3047 3048 3049 3049 3050 3051 3052 3052 3053 3053 3054 3054 3055 3055 3056 3056 3057 3057 3057 3058 3058 3059 3059 3059 3060 3060 3061 3061 3061 3062 3062 3062 3062 3063
3010 3010 3010 3010 3010 3010 3009 3009 3009 3009 3009 3009 3009 3009 3010 3010 3011 3012 3012 3013 3014 3014 3015 3016 3017 3018 3019 3020 3020 3021 3022 3024 3025 3026 3027 3028 3030 3031 3032 3033 3035 3036 3037 3038 3039 3039 3040 3041 3042 3043 3044 3045 3046 3047 3047 3048 3049 3049 3050 3051 3051 3052 3052 3053 3053 3054 3055 3055 3055 3056 3056 3057 3057 3057 3057 3058 3058 3059 3059 3059 3060 3060 3061 3061 3061 3062
3007 3007 3007 3007 3007 3007 3007 3007 3007 3007 3007 3007 3007 3007 3008 3008 3009 3009 3010 3011 3012 3012 3013 3014 3015 3016 3017 3018 3019 3020 3021 3022 3024 3025 3026 3027 3028 3030 3031 3032 3033 3034 3036 3037 3037 3038 3039 3040 3041 3042 3043 3044 3044 3045 3046 3047 3047 3048 3049 3049 3050 3051 3051 3052 3052 3053 3053 3053 3054 3054 3055 3055 3055 3056 3056 3057 3057 3057 3057 3058 3058 3059 3059 3059 3060 3060
3005 3005 3005 3005 3005 3005 3005 3005 3004 3004 3005 3005 3005 3006 3006 3007 3007 3008 3008 3009 3010 3011 3012 3013 3014 3015 3015 3016 3017 3018 3020 3021 3022 3023 3025 3026 3027 3029 3030 3031 3032 3033 3034 3035 3036 3037 3038 3039 3040 3041 3042 3042 3043 3044 3045 3045 3046 3047 3047 3048 3048 3049 3050 3050 3051 3051 3052 3052 3052 3053 3053 3053 3054 3054 3055 3055 3055 3056 3056 3056 3057 3057 3057 3058 3058 3058
3002 3002 3003 3003 3003 3003 3002 3002 3002 3002 3003 3003 3003 3004 3004 3005 3006 3006 3007 3007 3008 3009 3010 3011 3012 3013 3014 3015 3016 3017 3018 3020 3021 3022 3024 3025 3026 3027 3028 3029 3031 3032 3033 3034 3035 3036 3037 3037 3038 3039 3040 3041 3042 3042 3043 3044 3045 3045 3046 3047 3047 3048 3048 3049 3049 3050 3050 3051 3051 3051 3052 3052 3052 3053 3053 3053 3054 3054 3054 3055 3055 3055 3056 3056 3056 3057
3000 3000 3000 3000 3000 3000 3000 3000 3000 3000 3001 3001 3002 3002 3003 3003 3004 3004 3005 3006 3007 3008 3009 3010 3011 3012 3012 3013 3015 3016 3017 3018 3020 3021 3022 3024 3025 3026 3027 3028 3029 3030 3032 3032 3033 3034 3035 3036 3037 3038 3039 3040 3040 3041 3042 3042 3043 3044 3044 3045 3046 3046 3047 3047 3048 3048 3049 3049 3050 3050 3050 3051 3051 3051 3052 3052 3052 3052 3053 3053 3053 3054 3054 3054 3055 3055
2997 2998 2998 2998 2998 2997 2997 2997 2998 2998 2999 3000 3000 3001 3001 3002 3002 3003 3003 3004 3005 3006 3007 3008 3009 3010 3011 3012 3013 3015 3016 3017 3019 3020 3021 3022 3023 3024 3026 3027 3028 3029 3030 3031 3032 3033 3034 3035 3036 3037 3037 3038 3039 3040 3040 3041 3042 3042 3043 3044 3044 3045 3045 3046 3047 3047 3047 3048 3048 3048 3049 3049 3049 3050 3050 3050 3051 3051 3051 3052 3052 3052 3052 3052 3053 3053
2995 2995 2995 2995 2995 2995 2995 2996 2996 2997 2997 2998 2998 2999 2999 3000 3001 3001 3002 3003 3004 3005 3006 3007 3007 3009 3010 3011 3012 3013 3015 3016 3017 3019 3020 3021 3022 3023 3024 3025 3026 3027 3029 3030 3031 3032 3032 3033 3034 3035 3036 3037 3037 3038 3039 3039 3040 3041 3042 3042 3043 3043 3044 3045 3045 3046 3046 3046 3047 3047 3047 3047 3048 3048 3048 3049 3049 3049 3049 3050 3050 3050 3051 3051 3051 3051
2992 2992 2992 2992 2993 2993 2993 2993 2994 2995 2995 2996 2997 2997 2998 2998 2999 3000 3000 3001 3002 3003 3004 3005 3006 3007 3009 3010 3011 3012 3014 3015 3016 3017 3018 3020 3021 3022 3023 3024 3025 3026 3027 3028 3029 3030 3031 3032 3033 3034 3035 3035 3036 3037 3037 3038 3039 3040 3040 3041 3042 3042 3042 3043 3043 3044 3045 3045 3045 3045 3046 3046 3046 3047 3047 3047 3047 3047 3048 3048 3048 3048 3049 3049 3049 3049
2990 2990 2990 2990 2990 2991 2991 2991 2992 2992 2993 2994 2995 2995 2996 2997 2997 2998 2999 3000 3001 3002 3003 3004 3005 3006 3007 3009 3010 3011 3012 3014 3015 3016 3017 3018 3019 3020 3021 3022 3024 3025 3026 3027 3028 3029 3030 3031 3032 3032 3033 3034 3034 3035 3036 3037 3037 3038 3039 3040 3040 3041 3041 3042 3042 3042 3043 3043 3044 3044 3044 3044 3045 3045 3045 3046 3046 3046 3046 3046 3047 3047 3047 3047 3047 3047
2987 2987 2987 2987 2988 2988 2989 2989 2990 2991 2991 2992 2993 2994 2994 2995 2996 2997 2997 2998 2999 3000 3001 3002 3004 3005 3006 3007 3009 3010 3011 3012 3013 3015 3016 3017 3018 3019 3020 3021 3022 3023 3024 3025 3026 3027 3028 3029 3030 3031 3032 3032 3033 3034 3034 3035 3036 3037 3037 3038 3039 3039 3039 3040 3040 3041 3041 3042 3042 3042 3042 3043 3043 3043 3044 3044 3044 3044 3044 3044 3045 3045 3045 3045 3045 3045
2984 2984 2984 2985 2985 2986 2987 2987 2988 2989 2989 2990 2991 2992 2992 2993 2994 2995 2996 2997 2998 2999 3000 3001 3002 3004 3005 3006 3007 3008 3010 3011 3012 3013 3014 3015 3017 3017 3018 3020 3021 3022 3023 3024 3025 3026 3027 3027 3028 3029 3030 3031 3032 3032 3033 3034 3034 3035 3036 3037 3037 3037 3038 3038 3038 3039 3039 3040 3040 3040 3041 3041 3042 3042 3042 3042 3042 3042 3042 3042 3043 3043 3043 3043 3043 3043
2981 2982 2982 2982 2983 2984 2984 2985 2986 2987 2987 2988 2989 2990 2991 2992 2992 2993 2994 2995 2996 2997 2998 3000 3001 3002 3003 3005 3006 3007 3008 3009 3010 3012 3012 3014 3015 3016 3017 3018 3019 3020 3022 3022 3023 3024 3025 3026 3027 3028 3029 3030 3030 3031 3032 3032 3033 3034 3034 3035 3035 3036 3036 3037 3037 3037 3037 3038 3038 3038 3039 3039 3040 3040 3040 3040 3040 3040 3041 3041 3041 3041 3041 3041 3041 3041
2979 2979 2980 2980 2981 2981 2982 2983 2984 2985 2986 2986 2987 2988 2989 2990 2991 2992 2992 2993 2995 2996 2997 2998 3000 3001 3002 3003 3004 3006 3007 3008 3009 3010 3011 3012 3013 3014 3016 3017 3018 3019 3020 3021 3022 3023 3024 3025 3026 3027 3027 3028 3029 3029 3030 3031 3031 3032 3032 3033 3034 3034 3035 3035 3035 3036 3036 3036 3036 3037 3037 3037 3037 3038 3038 3038 3038 3038 3038 3038 3038 3038 3038 3038 3039 3038
2976 2977 2977 2978 2978 2979 2980 2981 2982 2982 2983 2984 2985 2986 2987 2988 2989 2990 2991 2992 2993 2994 2995 2997 2998 2999 3001 3002 3003 3004 3005 3006 3007 3009 3010 3011 3012 3013 3014 3015 3016 3017 3018 3019 3021 3022 3022 3023 3024 3025 3026 3027 3027 3028 3029 3029 3030 3030 3031 3031 3032 3032 3033 3033 3034 3034 3034 3034 3034 3035 3035 3035 3036 3036 3036 3036 3036 3036 3036 3036 3036 3036 3036 3036 3036 3036